| time (UTC) | temp F | wind direction | speed knots | gust knots | rain 1hr in | rain 24hr in | rain mn in | humidity % | barometer mb |
| 20260506083418 | 51 | 217 | 6.1 | 13.9 | 0.00 | 0.00 | 0.00 | 93 | 1020.5 |
| 20260506082410 | 51 | 157 | 6.1 | 13.9 | 0.00 | 0.00 | 0.00 | 93 | 1020.4 |
| 20260506081424 | 50 | 217 | 4.3 | 16.5 | 0.00 | 0.00 | 0.00 | 94 | 1020.3 |
| 20260506080421 | 50 | 215 | 6.1 | 13.9 | 0.00 | 0.00 | 0.00 | 95 | 1020.2 |
| 20260506073441 | 50 | 261 | 5.2 | 9.6 | 0.00 | 0.00 | 0.00 | 96 | 1020.6 |
| 20260506072413 | 49 | 270 | 7.0 | 13.0 | 0.00 | 0.00 | 0.00 | 97 | 1020.6 |
| 20260506071425 | 48 | 232 | 2.6 | 11.3 | 0.00 | 0.00 | 0.00 | 97 | 1020.6 |
| 20260506070417 | 48 | 307 | 3.5 | 7.8 | 0.00 | 0.00 | 0.00 | 97 | 1020.7 |
| 20260506062416 | 47 | 259 | 4.3 | 10.4 | 0.00 | 0.00 | 0.00 | 97 | 1021.0 |
| 20260506061409 | 47 | 253 | 3.5 | 13.9 | 0.00 | 0.00 | 0.00 | 97 | 1020.8 |
| 20260506060423 | 47 | 198 | 5.2 | 17.4 | 0.00 | 0.00 | 0.00 | 97 | 1020.6 |
| 20260506051416 | 45 | 240 | 3.5 | 12.2 | 0.00 | 0.00 | 0.00 | 96 | 1020.7 |
| 20260506050410 | 45 | 229 | 4.3 | 9.6 | 0.00 | 0.00 | 0.00 | 96 | 1021.0 |
| 20260506044415 | 45 | 177 | 6.1 | 15.6 | 0.00 | 0.00 | 0.00 | 94 | 1021.0 |
| 20260506043411 | 45 | 248 | 6.1 | 15.6 | 0.00 | 0.00 | 0.00 | 94 | 1020.9 |
| 20260506042424 | 45 | 165 | 6.1 | 11.3 | 0.00 | 0.00 | 0.00 | 93 | 1020.9 |
| 20260506041417 | 45 | 228 | 4.3 | 9.6 | 0.00 | 0.00 | 0.00 | 92 | 1020.8 |
| 20260506040412 | 45 | 215 | 3.5 | 8.7 | 0.00 | 0.00 | 0.00 | 91 | 1020.9 |
| 20260506035446 | 45 | 302 | 3.5 | 12.2 | 0.00 | 0.00 | 0.00 | 91 | 1020.8 |
| 20260506034417 | 45 | 284 | 3.5 | 13.9 | 0.00 | 0.00 | 0.00 | 90 | 1020.7 |
| 20260506033410 | 45 | 250 | 2.6 | 13.0 | 0.00 | 0.00 | 0.00 | 89 | 1020.5 |
| 20260506032424 | 45 | 212 | 4.3 | 12.2 | 0.00 | 0.00 | 0.00 | 89 | 1020.3 |
| 20260506031422 | 44 | 253 | 3.5 | 8.7 | 0.00 | 0.00 | 0.00 | 90 | 1020.2 |
| 20260506030415 | 44 | 207 | 4.3 | 8.7 | 0.00 | 0.00 | 0.00 | 89 | 1020.1 |
| 20260506025411 | 44 | 246 | 4.3 | 7.8 | 0.00 | 0.00 | 0.00 | 89 | 1020.2 |
| 20260506024410 | 44 | 223 | 1.7 | 9.6 | 0.00 | 0.00 | 0.00 | 88 | 1020.0 |
| 20260506023424 | 44 | 237 | 4.3 | 8.7 | 0.00 | 0.00 | 0.00 | 89 | 1020.0 |
| 20260506022417 | 44 | 196 | 4.3 | 12.2 | 0.00 | 0.00 | 0.00 | 88 | 1020.0 |
| 20260506021415 | 45 | 189 | 2.6 | 11.3 | 0.00 | 0.00 | 0.00 | 87 | 1020.0 |
| 20260506020427 | 45 | 167 | 3.5 | 12.2 | 0.00 | 0.00 | 0.00 | 86 | 1019.9 |
| 20260506015421 | 45 | 254 | 5.2 | 11.3 | 0.00 | 0.00 | 0.00 | 86 | 1019.7 |
| 20260506014435 | 45 | 266 | 5.2 | 11.3 | 0.00 | 0.00 | 0.00 | 86 | 1019.6 |
| 20260506013431 | 45 | 236 | 4.3 | 11.3 | 0.00 | 0.00 | 0.00 | 86 | 1019.4 |
| 20260506012425 | 45 | 244 | 7.0 | 14.8 | 0.00 | 0.00 | 0.00 | 86 | 1019.2 |
| 20260506011418 | 45 | 191 | 4.3 | 13.9 | 0.00 | 0.00 | 0.00 | 86 | 1019.2 |
| 20260506010411 | 45 | 222 | 6.1 | 13.0 | 0.00 | 0.00 | 0.00 | 86 | 1018.8 |
| 20260506005428 | 45 | 275 | 6.1 | 13.0 | 0.00 | 0.00 | 0.00 | 86 | 1018.7 |
| 20260506004421 | 45 | 273 | 4.3 | 14.8 | 0.00 | 0.00 | 0.00 | 86 | 1018.5 |
| 20260506003435 | 45 | 250 | 6.1 | 13.9 | 0.00 | 0.00 | 0.00 | 86 | 1018.3 |
| 20260506002418 | 44 | 198 | 6.1 | 14.8 | 0.00 | 0.00 | 0.00 | 87 | 1018.1 |
| 20260506001435 | 43 | 220 | 4.3 | 14.8 | 0.00 | 0.00 | 0.00 | 87 | 1017.9 |
| 20260506000428 | 43 | 233 | 7.0 | 13.0 | 0.00 | 0.00 | 0.00 | 87 | 1017.8 |
| 20260505235442 | 43 | 242 | 3.5 | 12.2 | 0.00 | 0.00 | 0.00 | 87 | 1017.7 |
| 20260505234417 | 44 | 229 | 3.5 | 9.6 | 0.00 | 0.00 | 0.00 | 85 | 1017.5 |
| 20260505233417 | 45 | 229 | 5.2 | 13.9 | 0.00 | 0.00 | 0.00 | 84 | 1017.3 |
| 20260505232411 | 45 | 300 | 6.1 | 14.8 | 0.00 | 0.00 | 0.00 | 83 | 1017.1 |
| 20260505231425 | 46 | 221 | 4.3 | 13.0 | 0.00 | 0.00 | 0.00 | 82 | 1017.0 |
| 20260505230442 | 47 | 206 | 6.1 | 10.4 | 0.00 | 0.00 | 0.00 | 81 | 1016.8 |
| 20260505225417 | 47 | 232 | 5.2 | 12.2 | 0.00 | 0.00 | 0.00 | 81 | 1016.7 |
| 20260505224428 | 47 | 225 | 5.2 | 13.0 | 0.00 | 0.00 | 0.00 | 80 | 1016.6 |
| 20260505223422 | 47 | 175 | 3.5 | 13.9 | 0.00 | 0.00 | 0.00 | 79 | 1016.2 |
| 20260505222440 | 48 | 257 | 5.2 | 13.9 | 0.00 | 0.00 | 0.00 | 78 | 1016.1 |
| 20260505221434 | 48 | 254 | 5.2 | 10.4 | 0.00 | 0.00 | 0.00 | 78 | 1016.0 |
| 20260505220426 | 49 | 211 | 3.5 | 13.0 | 0.00 | 0.00 | 0.00 | 76 | 1015.7 |
| 20260505215421 | 50 | 263 | 3.5 | 13.0 | 0.00 | 0.00 | 0.00 | 74 | 1015.6 |
| 20260505214422 | 51 | 266 | 5.2 | 11.3 | 0.00 | 0.00 | 0.00 | 73 | 1015.2 |
| 20260505213416 | 51 | 225 | 7.8 | 16.5 | 0.00 | 0.00 | 0.00 | 70 | 1015.1 |
| 20260505212409 | 52 | 266 | 4.3 | 14.8 | 0.00 | 0.00 | 0.00 | 68 | 1015.0 |
| 20260505211422 | 54 | 311 | 7.0 | 17.4 | 0.00 | 0.00 | 0.00 | 65 | 1014.7 |
| 20260505210421 | 55 | 252 | 6.1 | 13.9 | 0.00 | 0.00 | 0.00 | 61 | 1014.6 |
| 20260505205415 | 55 | 248 | 7.8 | 18.2 | 0.00 | 0.00 | 0.00 | 57 | 1014.6 |
| 20260505204447 | 55 | 244 | 7.8 | 16.5 | 0.00 | 0.00 | 0.00 | 54 | 1014.5 |
| 20260505203438 | 54 | 229 | 6.1 | 16.5 | 0.00 | 0.00 | 0.00 | 53 | 1014.5 |
| 20260505202412 | 54 | 277 | 6.1 | 13.9 | 0.00 | 0.00 | 0.00 | 52 | 1014.5 |
| 20260505201409 | 54 | 319 | 6.1 | 14.8 | 0.00 | 0.00 | 0.00 | 50 | 1014.4 |
| 20260505200424 | 54 | 274 | 5.2 | 13.0 | 0.00 | 0.00 | 0.00 | 47 | 1014.4 |
| 20260505195420 | 54 | 288 | 7.0 | 14.8 | 0.00 | 0.00 | 0.00 | 49 | 1014.2 |
| 20260505194413 | 53 | 281 | 7.0 | 14.8 | 0.00 | 0.00 | 0.00 | 51 | 1014.1 |
| 20260505193447 | 54 | 323 | 7.0 | 18.2 | 0.00 | 0.00 | 0.00 | 50 | 1013.9 |
| 20260505192420 | 54 | 43 | 7.8 | 18.2 | 0.00 | 0.00 | 0.00 | 50 | 1013.8 |
| 20260505191417 | 54 | 254 | 7.0 | 18.2 | 0.00 | 0.00 | 0.00 | 50 | 1013.7 |
| 20260505190410 | 54 | 253 | 7.8 | 13.9 | 0.00 | 0.00 | 0.00 | 51 | 1013.6 |
| 20260505185444 | 54 | 235 | 8.7 | 16.5 | 0.00 | 0.00 | 0.00 | 51 | 1013.4 |
| 20260505184419 | 54 | 338 | 6.1 | 15.6 | 0.00 | 0.00 | 0.00 | 52 | 1013.4 |
| 20260505183436 | 54 | 304 | 7.8 | 17.4 | 0.00 | 0.00 | 0.00 | 52 | 1013.6 |
| 20260505182429 | 54 | 287 | 7.0 | 16.5 | 0.00 | 0.00 | 0.00 | 52 | 1013.3 |
| 20260505181421 | 55 | 245 | 6.1 | 17.4 | 0.00 | 0.00 | 0.00 | 52 | 1013.4 |
| 20260505180416 | 54 | 301 | 5.2 | 16.5 | 0.00 | 0.00 | 0.00 | 53 | 1013.5 |
| 20260505175433 | 55 | 277 | 7.0 | 16.5 | 0.00 | 0.00 | 0.00 | 51 | 1013.4 |
| 20260505174426 | 56 | 170 | 7.0 | 19.1 | 0.00 | 0.00 | 0.00 | 50 | 1013.3 |
| 20260505173419 | 55 | 272 | 5.2 | 15.6 | 0.00 | 0.00 | 0.00 | 51 | 1013.3 |
| 20260505172413 | 56 | 306 | 6.1 | 15.6 | 0.00 | 0.00 | 0.00 | 48 | 1013.2 |
| 20260505171409 | 55 | 223 | 7.8 | 17.4 | 0.00 | 0.00 | 0.00 | 48 | 1012.9 |
| 20260505170444 | 55 | 256 | 7.0 | 15.6 | 0.00 | 0.00 | 0.00 | 49 | 1013.0 |
| 20260505165416 | 56 | 213 | 7.0 | 16.5 | 0.00 | 0.00 | 0.00 | 49 | 1012.8 |
| 20260505164414 | 55 | 257 | 6.1 | 13.9 | 0.00 | 0.00 | 0.00 | 49 | 1012.6 |
| 20260505163408 | 55 | 252 | 6.1 | 13.0 | 0.00 | 0.00 | 0.00 | 46 | 1012.7 |
| 20260505162420 | 55 | 198 | 6.1 | 13.9 | 0.00 | 0.00 | 0.00 | 47 | 1012.6 |
| 20260505161414 | 54 | 309 | 8.7 | 17.4 | 0.00 | 0.00 | 0.00 | 48 | 1012.4 |
| 20260505160411 | 55 | 311 | 5.2 | 13.0 | 0.00 | 0.00 | 0.00 | 48 | 1012.4 |
| 20260505152429 | 54 | 248 | 7.0 | 12.2 | 0.00 | 0.00 | 0.00 | 53 | 1011.9 |
| 20260505151440 | 53 | 252 | 5.2 | 13.0 | 0.00 | 0.00 | 0.00 | 56 | 1011.8 |
| 20260505150412 | 53 | 252 | 7.0 | 16.5 | 0.00 | 0.00 | 0.00 | 57 | 1011.7 |
| 20260505140421 | 52 | 282 | 7.8 | 13.9 | 0.00 | 0.00 | 0.00 | 65 | 1011.2 |
| 20260505124415 | 50 | 296 | 6.1 | 13.9 | 0.00 | 0.00 | 0.00 | 77 | 1010.4 |
| 20260505123447 | 50 | 214 | 7.0 | 16.5 | 0.00 | 0.00 | 0.00 | 78 | 1010.1 |
| 20260505122419 | 48 | 102 | 6.1 | 17.4 | 0.00 | 0.00 | 0.00 | 80 | 1010.0 |
| 20260505121414 | 48 | 211 | 7.0 | 13.0 | 0.00 | 0.00 | 0.00 | 81 | 1009.9 |
| 20260505120412 | 47 | 285 | 6.1 | 13.0 | 0.00 | 0.00 | 0.00 | 82 | 1010.0 |
| 20260505115421 | 47 | 238 | 7.0 | 13.9 | 0.00 | 0.00 | 0.00 | 82 | 1009.9 |
| 20260505114414 | 46 | 200 | 7.8 | 13.0 | 0.00 | 0.00 | 0.00 | 83 | 1009.8 |
| 20260505113410 | 46 | 252 | 6.1 | 16.5 | 0.00 | 0.00 | 0.00 | 83 | 1009.6 |
| 20260505112424 | 45 | 238 | 7.8 | 14.8 | 0.00 | 0.00 | 0.00 | 84 | 1009.2 |
| 20260505111418 | 45 | 236 | 4.3 | 14.8 | 0.00 | 0.00 | 0.00 | 85 | 1009.1 |
| 20260505110432 | 44 | 230 | 7.8 | 13.0 | 0.00 | 0.00 | 0.00 | 85 | 1009.1 |
| 20260505101427 | 43 | 200 | 7.0 | 13.9 | 0.00 | 0.00 | 0.00 | 87 | 1008.6 |
| 20260505100441 | 42 | 223 | 6.1 | 13.0 | 0.00 | 0.00 | 0.00 | 87 | 1008.4 |
| 20260505095414 | 42 | 276 | 7.0 | 16.5 | 0.00 | 0.00 | 0.00 | 87 | 1008.4 |
| 20260505094448 | 42 | 238 | 6.1 | 13.0 | 0.00 | 0.00 | 0.00 | 86 | 1008.4 |
| 20260505093423 | 43 | 327 | 6.1 | 10.4 | 0.00 | 0.00 | 0.00 | 85 | 1008.0 |
| 20260505092416 | 42 | 263 | 4.3 | 14.8 | 0.00 | 0.00 | 0.00 | 86 | 1007.6 |
| 20260505091428 | 41 | 226 | 4.3 | 12.2 | 0.00 | 0.00 | 0.00 | 87 | 1007.4 |
| 20260505090424 | 41 | 209 | 5.2 | 16.5 | 0.00 | 0.00 | 0.00 | 88 | 1007.4 |
| 20260505085437 | 40 | 88 | 5.2 | 10.4 | 0.00 | 0.00 | 0.00 | 89 | 1007.2 |
| 20260505084409 | 40 | 266 | 7.0 | 13.9 | 0.00 | 0.00 | 0.00 | 89 | 1007.6 |